Date String (YYYY-MM-DD hh:mm:ss) UTC,Instrument flags,Ambient pressure (hPa),Sample flow (lpm),Bypass flow (lpm),Sample temperature (°C),Ambient temperature (°C),ASC tube jacket temperature (°C),LED temperature (°C),Box temperature (°C),Sample RH (%),Span deviation,Mass concentration (μg/m³),Mass concentration (μg/m³),Mass concentration (μg/m³)
DateTimeUTC,F1_M11,P_M11,Q1_M11,Q2_M11,T1_M11,T2_M11,T3_M11,T4_M11,T5_M11,U1_M11,ZSPAN_M11,X0_M11,X2_M11,X1_M11
2021-09-20 07:00:00,,0822.2,5.01,0.00,29.9,28.9,00.0,39.1,31.7,20.4,0002.5,0066.85,0017.14,0010.49
2021-09-20 07:01:00,,0822.3,4.99,0.00,30.0,28.9,00.0,39.1,31.7,20.5,0002.3,0067.60,0017.21,0010.49
2021-09-20 07:02:00,,0822.4,5.00,0.00,29.9,28.9,00.0,39.1,31.7,20.5,0001.9,0065.61,0017.16,0010.47
2021-09-20 07:03:00,,0822.4,4.99,0.00,29.9,28.9,00.0,39.1,31.7,20.5,0001.7,0064.58,0017.03,0010.47
2021-09-20 07:04:00,,0822.4,5.01,0.00,29.9,28.9,00.0,39.1,31.7,20.6,0001.8,0067.33,0017.05,0010.47
2021-09-20 07:05:00,,0822.4,5.00,0.00,29.9,28.9,00.0,39.1,31.7,20.5,0001.6,0066.07,0017.03,0010.47
2021-09-20 07:06:00,,0822.5,5.00,0.00,29.9,28.9,00.0,39.1,31.7,20.5,0001.5,0067.54,0017.01,0010.47
2021-09-20 07:07:00,,0822.5,5.00,0.00,29.9,28.9,00.0,39.1,31.6,20.5,0001.5,0067.71,0017.05,0010.49
2021-09-20 07:08:00,,0822.4,5.01,0.00,29.9,28.9,00.0,39.1,31.6,20.5,0001.7,0065.13,0017.08,0010.47
2021-09-20 07:09:00,,0822.4,5.01,0.00,29.9,28.9,00.0,39.1,31.6,20.5,0001.8,0065.76,0016.92,0010.45
2021-09-20 07:10:00,,0822.4,4.99,0.00,29.9,29.0,00.0,39.1,31.6,20.5,0002.0,0065.18,0016.84,0010.44
2021-09-20 07:11:00,,0822.4,5.00,0.00,29.9,29.0,00.0,39.1,31.6,20.6,0002.5,0066.48,0016.98,0010.47
2021-09-20 07:12:00,,0822.4,5.01,0.00,29.9,28.9,00.0,39.1,31.6,20.6,0002.6,0065.45,0016.97,0010.49
2021-09-20 07:13:00,,0822.6,4.99,0.00,29.9,28.9,00.0,39.1,31.6,20.6,0002.8,0067.08,0017.00,0010.51
2021-09-20 07:14:00,,0822.6,5.01,0.00,29.8,28.9,00.0,39.1,31.5,20.6,0003.0,0067.22,0017.07,0010.51
2021-09-20 07:15:00,,0822.6,4.99,0.00,29.8,28.9,00.0,39.0,31.5,20.6,0002.9,0063.69,0017.07,0010.49
2021-09-20 07:16:00,,0822.6,5.01,0.00,29.8,28.9,00.0,39.0,31.5,20.7,0002.8,0066.34,0017.15,0010.47
2021-09-20 07:17:00,,0822.4,4.99,0.00,29.8,28.9,00.0,39.0,31.5,20.7,0003.0,0066.88,0017.17,0010.45
2021-09-20 07:18:00,,0822.4,5.00,0.00,29.8,27.9,00.0,39.0,31.2,20.7,0003.3,0066.60,0017.15,0010.42
2021-09-20 07:19:00,,0822.4,5.00,0.00,29.6,26.0,00.0,38.9,30.7,20.8,0003.3,0068.88,0017.17,0010.43
2021-09-20 07:20:00,,0822.4,5.01,0.00,29.5,25.8,00.0,38.9,30.7,21.0,0003.2,0069.84,0017.14,0010.42
2021-09-20 07:21:00,,0822.4,5.00,0.00,29.4,26.2,00.0,38.8,30.7,21.1,0003.0,0071.61,0017.27,0010.41
2021-09-20 07:22:00,,0822.4,5.00,0.00,29.3,26.7,00.0,38.8,30.8,21.2,0002.9,0071.00,0017.14,0010.38
2021-09-20 07:23:00,,0822.5,5.00,0.00,29.3,27.0,00.0,38.7,30.9,21.3,0002.8,0069.33,0017.07,0010.34
2021-09-20 07:24:00,,0822.6,5.00,0.00,29.3,27.3,00.0,38.7,30.9,21.3,0002.9,0069.49,0017.14,0010.34
2021-09-20 07:25:00,,0822.6,5.01,0.00,29.3,27.5,00.0,38.7,30.9,21.4,0002.9,0067.61,0017.14,0010.34
2021-09-20 07:26:00,,0822.7,4.99,0.00,29.3,27.7,00.0,38.6,30.9,21.4,0002.8,0068.80,0016.98,0010.33
2021-09-20 07:27:00,,0822.7,5.01,0.00,29.2,27.8,00.0,38.6,30.9,21.4,0003.1,0067.01,0016.85,0010.33
2021-09-20 07:28:00,,0822.7,4.99,0.00,29.2,27.9,00.0,38.6,30.9,21.5,0002.9,0065.39,0016.83,0010.31
2021-09-20 07:29:00,,0822.6,5.01,0.00,29.2,28.0,00.0,38.6,31.0,21.5,0002.6,0064.03,0016.79,0010.30
2021-09-20 07:30:00,,0822.6,4.99,0.00,29.2,28.0,00.0,38.6,31.0,21.5,0002.6,0060.97,0016.67,0010.30
2021-09-20 07:31:00,,0822.6,5.00,0.00,29.2,28.1,00.0,38.5,30.9,21.5,0002.4,0059.04,0016.59,0010.28
2021-09-20 07:32:00,,0822.6,5.00,0.00,29.2,28.1,00.0,38.5,30.9,21.6,0002.7,0055.85,0016.24,0010.22
2021-09-20 07:33:00,,0822.6,4.99,0.00,29.2,28.1,00.0,38.5,31.0,21.6,0002.7,0054.88,0016.15,0010.17
2021-09-20 07:34:00,,0822.7,5.01,0.00,29.2,28.2,00.0,38.5,30.9,21.6,0002.7,0055.02,0016.03,0010.15
2021-09-20 07:35:00,,0822.6,5.01,0.00,29.2,28.2,00.0,38.5,30.9,21.6,0002.4,0054.66,0015.84,0010.10
2021-09-20 07:36:00,,0822.6,5.00,0.00,29.2,28.2,00.0,38.5,30.9,21.7,0002.6,0055.24,0015.67,0010.07
2021-09-20 07:37:00,,0822.6,5.01,0.00,29.2,28.2,00.0,38.5,30.9,21.6,0002.8,0054.17,0015.60,0010.05
2021-09-20 07:38:00,,0822.6,5.00,0.00,29.2,28.2,00.0,38.4,30.9,21.6,0002.4,0052.39,0015.41,0010.02
2021-09-20 07:39:00,,0822.6,4.99,0.00,29.2,28.2,00.0,38.4,30.9,21.6,0002.8,0050.55,0015.18,0010.00
2021-09-20 07:40:00,,0822.6,5.00,0.00,29.2,28.2,00.0,38.4,30.9,21.6,0002.9,0051.28,0014.99,0009.96
2021-09-20 07:41:00,,0822.8,5.01,0.00,29.2,28.2,00.0,38.4,30.9,21.7,0003.1,0048.93,0014.81,0009.90
2021-09-20 07:42:00,,0823.0,4.99,0.00,29.2,28.2,00.0,38.4,30.8,21.7,0003.4,0046.73,0014.67,0009.86
2021-09-20 07:43:00,,0823.2,5.01,0.00,29.1,28.2,00.0,38.4,30.9,21.7,0003.4,0045.33,0014.61,0009.87
2021-09-20 07:44:00,,0823.3,5.00,0.00,29.1,28.2,00.0,38.4,30.9,21.7,0003.5,0044.85,0014.52,0009.89
2021-09-20 07:45:00,,0823.4,5.00,0.00,29.1,28.2,00.0,38.4,30.9,21.7,0003.6,0043.48,0014.36,0009.86
2021-09-20 07:46:00,,0823.2,5.01,0.00,29.1,28.2,00.0,38.4,30.8,21.7,0003.9,0042.07,0014.13,0009.84
2021-09-20 07:47:00,,0823.1,5.00,0.00,29.1,28.1,00.0,38.3,30.8,21.8,0003.8,0040.23,0013.92,0009.80
2021-09-20 07:48:00,,0823.0,5.01,0.00,29.0,28.1,00.0,38.3,30.7,21.8,0003.7,0038.52,0013.74,0009.73
2021-09-20 07:49:00,,0823.1,5.00,0.00,29.0,28.1,00.0,38.3,30.7,21.9,0003.9,0037.89,0013.63,0009.71
2021-09-20 07:50:00,,0822.9,5.00,0.00,29.0,28.0,00.0,38.3,30.7,21.9,0003.9,0036.83,0013.44,0009.69
2021-09-20 07:51:00,,0823.0,4.99,0.00,29.0,28.0,00.0,38.3,30.7,21.9,0004.0,0033.94,0013.29,0009.66
2021-09-20 07:52:00,,0823.2,5.00,0.00,29.0,28.0,00.0,38.3,30.7,21.8,0004.0,0034.01,0013.20,0009.62
2021-09-20 07:53:00,,0823.4,5.00,0.00,29.0,28.0,00.0,38.3,30.7,21.8,0004.1,0035.13,0013.09,0009.58
2021-09-20 07:54:00,,0823.3,5.01,0.00,28.9,28.0,00.0,38.2,30.7,21.9,0004.0,0035.63,0012.93,0009.52
2021-09-20 07:55:00,,0823.2,4.99,0.00,28.9,28.0,00.0,38.2,30.6,21.9,0004.0,0034.57,0012.84,0009.47
2021-09-20 07:56:00,,0823.1,5.02,0.00,28.9,28.0,00.0,38.2,30.7,21.9,0003.9,0034.38,0012.75,0009.46
2021-09-20 07:57:00,,0823.2,5.00,0.00,28.9,28.0,00.0,38.2,30.7,21.9,0003.6,0032.92,0012.68,0009.43
2021-09-20 07:58:00,,0823.3,5.00,0.00,28.9,28.0,00.0,38.2,30.6,21.9,0003.5,0031.50,0012.60,0009.40
2021-09-20 07:59:00,,0823.4,5.01,0.00,28.9,28.0,00.0,38.2,30.7,21.9,0003.5,0031.29,0012.60,0009.38
